Tracking 25648 objects as of 17-May-2022
HD Live streaming from Space Station
objects crossing your sky now

COSMOS 2251 DEB

Track COSMOS 2251 DEB now!
10-day predictions


NORAD ID: 34918
Int'l Code: 1993-036ADP
Perigee: 741.8 km
Apogee: 809.5 km
Inclination: 74.1 °
Period: 100.2 minutes
Semi major axis: 7146 km
RCS: 0.0184 m2 (small)
Launch date: June 16, 1993
Source: Commonwealth of Independent States (former USSR) (CIS)
Launch site: PLESETSK MISSILE AND SPACE COMPLEX (PKMTR)

Note: This is SATELLITE DEBRIS
aabbcc
Your satellite tracking list
Your tracking list is empty




NASA's NSSDC Master Catalog

Two Line Element Set (TLE):
1 34918U 93036ADP 22137.57323211  .00004440  00000-0  14873-2 0  9992
2 34918  74.0766 224.8716 0047378 172.5585 250.4398 14.36966984464662
Source of the keplerian elements: AFSPC